Yokota AB current weather conditions

sailwx.info

Wind from 320 at 2 knots

Air temperature 2.0° C
Visibility: greater than 8.7 NM
Dewpoint -3.0° C

Last reported at 2014-Dec-19 19:58 UTC.
Time now 2014-Dec-19 21:44 UTC

Location: N 35°45' E 139°21'.
View on Google Maps.

See reports from other nearby stations

  
Tides and Currents Weather Stations Pressure Air Temp Water Temp Dewpoint Dewpoint Depression Visibility Wind Speed Wind Dir Waves Ship Positions
date/time (UTC)wind fromknots sea level pressurealtimeterstation pressurevisibilityair tempwater tempwave heightnotes
2014-Dec-19 19:58 320 2 8.7 2.0
2014-Dec-19 18:58 360 2 8.7 2.0
2014-Dec-19 17:58 300 3 8.7 2.0
2014-Dec-19 16:58 8.7 2.0
2014-Dec-19 15:58 360 2 8.7 2.0
2014-Dec-19 14:58 360 3 8.7 1.0
2014-Dec-19 13:58 8.7-0.0
2014-Dec-19 12:58 8.7 1.0
2014-Dec-19 11:58 330 3 8.7 2.0
2014-Dec-19 10:58 310 6 8.7 3.0
2014-Dec-19 09:58 310 4 8.7 4.0
2014-Dec-19 08:58 130 3 8.7 5.0
2014-Dec-19 07:58 160 8 8.7 6.0
2014-Dec-19 06:58 170 11 8.7 8.0
2014-Dec-19 05:58 140 8 8.7 9.0
2014-Dec-19 04:58 130 6 8.710.0
2014-Dec-19 03:58 140 7 8.7 9.0
2014-Dec-19 02:58 080 4 8.7 8.0
2014-Dec-19 01:58 8.7 8.0
2014-Dec-19 00:58 150 6 8.7 6.0
2014-Dec-18 23:58 250 2 8.7 4.0
2014-Dec-18 22:58 8.7-1.0
2014-Dec-18 21:58 010 1 8.7-3.0
2014-Dec-18 20:58 270 4 8.7-2.0
2014-Dec-18 19:58 280 2 8.7-1.0
2014-Dec-18 18:58 190 2 8.7-4.0
2014-Dec-18 17:58 280 6 8.7-2.0
2014-Dec-18 16:58 300 5 8.7-0.0
2014-Dec-18 15:58 250 2 8.7-1.0
2014-Dec-18 14:58 8.7-0.0
2014-Dec-18 13:58 290 7 8.7 1.0
2014-Dec-18 12:58 010 7 8.7 1.0
2014-Dec-18 11:58 010 7 8.7 1.0
2014-Dec-18 10:58 360 11 8.7 4.0
2014-Dec-18 09:58 360 6 8.7 4.0
2014-Dec-18 08:58 350 9 8.7 5.0
2014-Dec-18 07:58 340 12 gusting 25 8.7 6.0
2014-Dec-18 06:58 330 14 gusting 19 8.7 7.0
2014-Dec-18 05:58 340 14 gusting 22 8.7 8.0
2014-Dec-18 05:29 290 12 gusting 24 8.7 8.0
2014-Dec-18 04:58 330 16 gusting 22 8.7 8.0
2014-Dec-18 03:58 340 20 gusting 27 8.7 8.0
2014-Dec-18 02:58 320 5 8.7 7.0
2014-Dec-18 01:58 340 5 8.7 6.0
2014-Dec-18 00:58 110 2 8.7 4.0
2014-Dec-17 23:58 120 3 8.7 2.0
2014-Dec-17 22:58 280 2 8.7-0.0
2014-Dec-17 21:58 350 1 8.7-3.0